Grand Forks International Airport Grand Forks US
ICAO: KGFK
IATA: GFK
Category: Medium
Scheduled Services: Yes

Elevation: 845 ft
TransAlt. 18000 ft.

Airport Communications:
APP/DEP:118.1
ATIS:119.4
CTAF:118.4
GND:124.575
RDO:122.2
Grand Forks Tower:118.4
UNICOM:122.95

KGFK Zoom In..

Runways:

(A) RW 09L length 4206 ft width 100 ft
---- / hdg 84

(B) RW 09R length 3300 ft width 60 ft
---- / hdg 84

(C) RW 17L length 3901 ft width 75 ft
---- / hdg 174

(D) RW 17R length 7351 ft width 150 ft
---- / hdg 174

(E) RW 27L length 3300 ft width 60 ft
---- / hdg 264

(F) RW 27R length 4206 ft width 100 ft
---- / hdg 264

(G) RW 35L length 7351 ft width 150 ft
ILS 109.10 / hdg 354

(H) RW 35R length 3901 ft width 75 ft
---- / hdg 354

Location; KGFK
Day. 20 / Time. 09.53 Zulu
* Altimeter: 30.39
* Temperature: 01° c. 33.8°f.
* Wind from: 150° Speed 05 kn.
Dewpoint: -02° c.
Visibility: 10 Statute Miles.
Clouds: Clear (automated report).

KGFK 200953Z AUTO 15005KT 10SM CLR 01/M02 A3039 RMK AO2 SLP298 T00111017


Wind From 150°
Speed 05 kn.

  YouTube Music Video
 
jpsmedia.com for Web Design  worldairports.se 2018   terms of use